Location: Newark
(41.8083°N, 72.2500°W)
Time: 10:42:12
(UTC+00:00)

Altair - Pass Details

Date: 06 December 2021
Orbit: 1501 x 1683 km, 47.2° (Epoch: 20 January)

Event Time Altitude Azimuth Distance (km) Brightness Sun altitude
Rises 22:28:06 0° 276° (W) 4,746 11.4 -12.7°
Reaches altitude 10° 22:31:17 10° 280° (W) 3,739 10.5 -13.2°
Maximum altitude 22:40:37 63° 0° (N) 1,672 7.6 -14.9°
Enters shadow 22:47:10 21° 76° (ENE) 2,879 8.3 -16.1°
